[[{"header":{"parameterUnit":"m.s-1","parameterCategory":1,"la1":30.2991,"la2":30.254,"lo1":-89.0895,"lo2":-89.0444,"dy":0.0017,"dx":0.0017,"nx":28,"ny":28,"refTime":"2024-05-29T09:00:00:Z","depth":0,"parameterNumber":2,"parameterNumberName":"U-component_of_WINDS"},"data":[0,0,0,0,0,0,0,0,0,0,0,0,0,0,0,0,0,0,0,0,0,0,0,0,0,0,0,0,0,0,0,0,0,0,0,0,0,0,0,0,0,0,0,0,0,0,0,0,0,0,0,0,0,0,0,0,0,0,-1.0494,-1.0495,0,-1.0614,-1.0616,-1.0617,-1.0624,-1.0622,-1.0621,-1.062,-1.0738,-1.0742,-1.0747,0,0,0,0,0,0,0,0,0,0,0,0,0,-1.0265,-1.0269,-1.0494,-1.0495,-1.0497,-1.0614,-1.0616,-1.0617,-1.0624,-1.0622,-1.0621,-1.0619,-1.0737,-1.0742,-1.0747,0,0,0,0,0,0,0,0,0,0,0,0,0,-1.0373,-1.027,-1.0493,-1.0514,-1.0517,-1.0614,-1.0616,-1.0618,-1.0624,-1.0622,-1.062,-1.0618,-1.0735,-1.0741,-1.0748,-1.083,0,0,-1.0768,-1.0771,0,0,0,0,0,0,0,0,-1.0366,-1.0381,-1.051,-1.0513,-1.0517,-1.0602,-1.0579,-1.0689,-1.0625,-1.0583,-1.062,-1.0617,-1.0694,-1.0704,-1.0731,-1.0836,-1.0841,-1.0769,-1.0773,-1.0776,-1.0778,0,0,0,0,0,0,0,-1.0359,-1.0376,-1.0541,-1.0511,-1.0516,-1.0516,-1.0529,-1.0599,-1.0649,-1.0587,-1.0588,-1.0602,-1.0696,-1.0725,-1.0734,-1.0843,-1.0769,-1.0775,-1.0779,-1.0781,-1.1022,-1.1024,0,0,0,0,0,0,-1.0348,-1.0369,-1.0537,-1.0545,-1.0435,-1.0522,-1.0537,-1.0576,-1.0648,-1.0657,-1.0604,-1.0602,-1.0714,-1.0726,-1.0738,-1.0841,-1.0776,-1.0782,-1.0786,-1.102,-1.1023,-1.1025,0,0,0,0,0,0,-1.0343,-1.0363,-1.0533,-1.0458,-1.0479,-1.0528,-1.0573,-1.058,-1.0609,-1.0661,-1.0669,-1.0625,-1.0713,-1.0729,-1.0808,-1.0845,-1.0785,-1.0791,-1.1017,-1.1021,-1.1024,-1.1046,0,0,0,0,0,0,-1.0337,-1.0361,-1.0394,-1.0458,-1.0483,-1.0602,-1.0575,-1.0584,-1.0621,-1.062,-1.0683,-1.0691,-1.0713,-1.0798,-1.0815,-1.0853,-1.0796,-1.1014,-1.1019,-1.1023,-1.1042,-1.105,-1.1056,0,0,0,0,0,-1.0328,-1.0394,-1.0396,-1.0416,-1.0526,-1.0604,-1.0618,-1.0643,-1.0624,-1.0657,-1.069,-1.0689,-1.0838,-1.0806,-1.0825,-1.0866,-1.1012,-1.1017,-1.1023,-1.1039,-1.1048,-1.1056,0,0,0,0,0,0,-1.0331,-1.0403,-1.0405,-1.0494,-1.0543,-1.0605,-1.0648,-1.0652,-1.0706,-1.0703,-1.073,-1.0744,-1.0823,-1.0851,-1.0815,-1.095,-1.0922,-1.0932,-1.0928,-1.0938,-1.0945,-1.0937,-1.0802,0,0,0,0,0,-1.0342,-1.0402,-1.046,-1.0533,-1.0557,-1.0598,-1.0633,-1.0648,-1.07,-1.072,-1.0759,-1.0807,-1.0865,-1.0903,-1.0958,-1.1045,-1.1059,-1.1083,-1.109,-1.1095,-1.1104,-1.1153,-1.1164,-1.1043,-1.1043,-1.1043,0,0,-1.0365,-1.0412,-1.0447,-1.0534,-1.0574,-1.0634,-1.0616,-1.0679,-1.0724,-1.0729,-1.0808,-1.0838,-1.0893,-1.0977,-1.1016,-1.1004,-1.114,-1.1102,-1.1106,-1.1112,-1.116,-1.1171,-1.1181,-1.1047,-1.1046,-1.1045,0,0,-1.0439,-1.048,-1.0546,-1.0586,-1.0648,-1.0674,-1.069,-1.0752,-1.0773,-1.0852,-1.0858,-1.0909,-1.1008,-1.1048,-1.1081,-1.117,-1.1172,-1.1187,-1.1225,-1.1273,-1.1282,-1.1291,-1.1324,-1.1336,-1.1195,-1.1195,-1.1195,0,-1.046,-1.0552,-1.0578,-1.0643,-1.0682,-1.069,-1.0757,-1.0794,-1.087,-1.0895,-1.0881,-1.1006,-1.1044,-1.1138,-1.116,-1.1186,-1.1204,-1.1181,-1.1279,-1.1288,-1.1297,-1.1328,-1.1341,-1.1197,-1.1197,-1.1196,-1.1196,0,-1.0575,-1.0639,-1.0684,-1.076,-1.0803,-1.0868,-1.0903,-1.0943,-1.0954,-1.0982,-1.1063,-1.1108,-1.1175,-1.1197,-1.1208,-1.1293,-1.1284,-1.1274,-1.1247,-1.1309,-1.134,-1.1352,-1.1199,-1.1199,-1.1198,-1.1198,0,0,-1.0655,-1.0745,-1.0761,-1.0796,-1.0864,-1.0914,-1.0978,-1.1045,-1.1079,-1.113,-1.1186,-1.1269,-1.1261,-1.1298,-1.1313,-1.1355,-1.1424,-1.134,-1.1341,-1.1355,-1.1522,-1.1531,-1.1545,-1.1424,-1.1427,-1.1429,-1.1518,0,-1.0737,-1.0856,-1.0882,-1.0984,-1.1043,-1.1053,-1.1109,-1.1157,-1.1184,-1.1237,-1.1266,-1.1326,-1.131,-1.1333,-1.1374,-1.1407,-1.1458,-1.14,-1.1476,-1.1478,-1.1464,-1.1561,-1.157,-1.1652,-1.153,-1.1532,-1.1534,0,-1.085,-1.0907,-1.1016,-1.1077,-1.1103,-1.1154,-1.1218,-1.1268,-1.1322,-1.1339,-1.1381,-1.1392,-1.1459,-1.1428,-1.152,-1.148,-1.1512,-1.1533,-1.1537,-1.1546,-1.1511,-1.1574,-1.1679,-1.1692,-1.1552,-1.1551,-1.1549,0,-1.09,-1.1003,-1.1082,-1.1111,-1.1184,-1.122,-1.1252,-1.1303,-1.1342,-1.1396,-1.1422,-1.1482,-1.1515,-1.1561,-1.1587,-1.1562,-1.1678,-1.1649,-1.1694,-1.1694,-1.172,-1.1718,-1.1833,-1.1737,-1.1737,-1.1737,-1.1737,0,-1.099,-1.1057,-1.1105,-1.1154,-1.1228,-1.1256,-1.1329,-1.136,-1.1406,-1.146,-1.1469,-1.152,-1.155,-1.1604,-1.1624,-1.1699,-1.1713,-1.1728,-1.1733,-1.1729,-1.1727,-1.1752,-1.1747,-1.174,-1.1739,-1.1739,-1.1738,0,-1.1059,-1.1094,-1.1181,-1.1244,-1.1261,-1.1314,-1.1367,-1.1414,-1.1441,-1.1509,-1.1527,-1.1569,-1.1634,-1.1664,-1.1742,-1.1756,-1.1841,-1.1841,-1.1824,-1.1826,-1.187,-1.1867,-1.2006,-1.2027,-1.1916,-1.1917,-1.1917,0,-1.1116,-1.1168,-1.1237,-1.1275,-1.1309,-1.1369,-1.1409,-1.1438,-1.1479,-1.1544,-1.1583,-1.1648,-1.1702,-1.1804,-1.1841,-1.1901,-1.1903,-1.1948,-1.1912,-1.1907,-1.1906,-1.1904,-1.1909,-1.1955,-1.1956,-1.1957,-1.1958,0,-1.1213,-1.1228,-1.1287,-1.1352,-1.14,-1.1452,-1.1503,-1.1533,-1.1569,-1.1615,-1.1682,-1.1724,-1.1805,-1.187,-1.1933,-1.1963,-1.1967,-1.1969,-1.1983,-1.198,-1.1968,-1.1977,-1.1844,-1.1966,-1.1965,-1.1964,-1.1964,-1.1964,-1.1279,-1.1326,-1.1383,-1.1448,-1.149,-1.1537,-1.1585,-1.162,-1.1677,-1.1747,-1.1759,-1.1831,-1.1882,-1.1968,-1.2001,-1.2056,-1.2046,-1.2065,-1.2071,-1.2076,-1.2079,-1.1958,-1.2067,-1.2067,-1.2067,-1.2067,-1.2066,0,-1.1379,-1.1416,-1.1476,-1.1548,-1.1599,-1.1599,-1.1656,-1.1698,-1.1762,-1.181,-1.1864,-1.1941,-1.2003,-1.2045,-1.2108,-1.2145,-1.2148,-1.216,-1.2159,-1.2166,-1.2084,-1.2067,-1.2157,-1.2157,-1.2157,-1.2157,-1.2157,-1.2157,-1.1437,-1.1518,-1.1539,-1.164,-1.1676,-1.1748,-1.1781,-1.1824,-1.1864,-1.195,-1.2003,-1.2031,-1.2077,-1.2144,-1.2201,-1.2211,-1.2234,-1.2248,-1.2258,-1.2181,-1.2172,-1.2163,-1.2147,-1.2252,-1.2252,-1.2336,-1.2337,-1.2337]},{"header":{"parameterUnit":"m.s-1","parameterCategory":1,"la1":30.2991,"la2":30.254,"lo1":-89.0895,"lo2":-89.0444,"dy":0.0017,"dx":0.0017,"nx":28,"ny":28,"refTime":"2024-05-29T09:00:00:Z","depth":0,"parameterNumber":3,"parameterNumberName":"V-component_of_WINDS"},"data":[0,0,0,0,0,0,0,0,0,0,0,0,0,0,0,0,0,0,0,0,0,0,0,0,0,0,0,0,0,0,0,0,0,0,0,0,0,0,0,0,0,0,0,0,0,0,0,0,0,0,0,0,0,0,0,0,0,0,-5.1025,-5.1026,0,-5.1158,-5.1159,-5.116,-5.1102,-5.1099,-5.1096,-5.1093,-5.122,-5.1226,-5.1233,0,0,0,0,0,0,0,0,0,0,0,0,0,-5.0715,-5.0721,-5.1025,-5.1027,-5.1028,-5.1157,-5.1159,-5.1161,-5.1103,-5.1099,-5.1095,-5.1091,-5.1218,-5.1226,-5.1233,0,0,0,0,0,0,0,0,0,0,0,0,0,-5.0848,-5.0723,-5.1025,-5.1015,-5.1016,-5.1157,-5.1159,-5.1161,-5.1104,-5.1099,-5.1094,-5.109,-5.1216,-5.1225,-5.1234,-5.139,0,0,-5.1264,-5.1268,0,0,0,0,0,0,0,0,-5.0841,-5.086,-5.1015,-5.1016,-5.1017,-5.1109,-5.1096,-5.1238,-5.1105,-5.107,-5.1093,-5.1087,-5.1186,-5.1198,-5.1233,-5.1396,-5.1401,-5.1264,-5.127,-5.1274,-5.1277,0,0,0,0,0,0,0,-5.0832,-5.0854,-5.1077,-5.1017,-5.1018,-5.1002,-5.1016,-5.1123,-5.1153,-5.1073,-5.1069,-5.1086,-5.1186,-5.1224,-5.1236,-5.1403,-5.1264,-5.1273,-5.1279,-5.1282,-5.1701,-5.1707,0,0,0,0,0,0,-5.0823,-5.0846,-5.1073,-5.1081,-5.0915,-5.1011,-5.1027,-5.1084,-5.1152,-5.1158,-5.109,-5.1083,-5.121,-5.1225,-5.124,-5.1428,-5.1274,-5.1283,-5.1289,-5.1696,-5.1703,-5.1708,0,0,0,0,0,0,-5.0817,-5.0844,-5.1067,-5.0963,-5.099,-5.1022,-5.1087,-5.1089,-5.1127,-5.1165,-5.1169,-5.1124,-5.1207,-5.1227,-5.1354,-5.1431,-5.1288,-5.1296,-5.169,-5.1698,-5.1706,-5.1804,0,0,0,0,0,0,-5.0808,-5.0842,-5.0903,-5.0965,-5.0996,-5.1182,-5.1091,-5.1095,-5.1145,-5.1137,-5.1198,-5.1204,-5.1205,-5.134,-5.1364,-5.1442,-5.1304,-5.1683,-5.1693,-5.1703,-5.1794,-5.1815,-5.1832,0,0,0,0,0,-5.0797,-5.0924,-5.0907,-5.0934,-5.1073,-5.1186,-5.1204,-5.1205,-5.1152,-5.1212,-5.1237,-5.1202,-5.1419,-5.1354,-5.138,-5.1462,-5.1678,-5.169,-5.1702,-5.1786,-5.1811,-5.1832,0,0,0,0,0,0,-5.0867,-5.0932,-5.0913,-5.1064,-5.1121,-5.1177,-5.1253,-5.1231,-5.1302,-5.1291,-5.1287,-5.1301,-5.1433,-5.146,-5.1386,-5.1617,-5.154,-5.1558,-5.1595,-5.1619,-5.1638,-5.1628,-5.1312,0,0,0,0,0,-5.0901,-5.099,-5.104,-5.1168,-5.1197,-5.1221,-5.127,-5.1266,-5.1324,-5.1346,-5.138,-5.1435,-5.1515,-5.1568,-5.1645,-5.1798,-5.181,-5.1867,-5.1886,-5.1902,-5.1917,-5.2001,-5.2027,-5.1748,-5.1748,-5.1748,0,0,-5.0969,-5.1016,-5.1071,-5.1183,-5.1226,-5.1317,-5.1241,-5.1339,-5.1406,-5.136,-5.1484,-5.1511,-5.1571,-5.1713,-5.1777,-5.1739,-5.1997,-5.1917,-5.1929,-5.1936,-5.2016,-5.2042,-5.2066,-5.1756,-5.1755,-5.1754,0,0,-5.1141,-5.1186,-5.1298,-5.1344,-5.1412,-5.1427,-5.1454,-5.1514,-5.1531,-5.1656,-5.1624,-5.1702,-5.1841,-5.1886,-5.1927,-5.2118,-5.2089,-5.2143,-5.2242,-5.2324,-5.2346,-5.2365,-5.2434,-5.2459,-5.2158,-5.2158,-5.2159,0,-5.1217,-5.1355,-5.1357,-5.146,-5.1509,-5.1476,-5.1589,-5.1632,-5.172,-5.1754,-5.1712,-5.1887,-5.1925,-5.2078,-5.2125,-5.2159,-5.2189,-5.2136,-5.2343,-5.2363,-5.2381,-5.2446,-5.2472,-5.2165,-5.2164,-5.2163,-5.2163,0,-5.1446,-5.1542,-5.1623,-5.1714,-5.1773,-5.1879,-5.1896,-5.1955,-5.1946,-5.1965,-5.2092,-5.2138,-5.2223,-5.2259,-5.225,-5.241,-5.2385,-5.2343,-5.2266,-5.2414,-5.2475,-5.25,-5.2173,-5.2171,-5.2169,-5.2168,0,0,-5.1664,-5.1757,-5.1787,-5.1828,-5.1902,-5.1974,-5.2079,-5.2166,-5.2217,-5.2279,-5.2366,-5.2486,-5.2448,-5.2495,-5.249,-5.2562,-5.2712,-5.2511,-5.2513,-5.2548,-5.2892,-5.2924,-5.2953,-5.2693,-5.2698,-5.2702,-5.2887,0,-5.1842,-5.203,-5.2035,-5.2206,-5.2294,-5.2264,-5.2356,-5.2409,-5.243,-5.2506,-5.2527,-5.2613,-5.2557,-5.2585,-5.2655,-5.2679,-5.2781,-5.2666,-5.2772,-5.2776,-5.2759,-5.2985,-5.3018,-5.3191,-5.2911,-5.2915,-5.2918,0,-5.2074,-5.2149,-5.2329,-5.2392,-5.2429,-5.2512,-5.2592,-5.2666,-5.2726,-5.2736,-5.279,-5.2776,-5.2881,-5.2801,-5.2945,-5.2867,-5.2911,-5.2929,-5.2936,-5.2946,-5.2856,-5.3001,-5.3246,-5.3272,-5.2956,-5.2953,-5.295,0,-5.2217,-5.2361,-5.2488,-5.2524,-5.26,-5.2659,-5.2693,-5.2749,-5.2801,-5.2871,-5.2904,-5.2984,-5.3028,-5.3089,-5.3096,-5.3037,-5.3241,-5.3162,-5.3251,-5.3252,-5.3296,-5.3293,-5.3552,-5.3324,-5.3323,-5.3323,-5.3322,0,-5.2415,-5.2527,-5.2553,-5.2632,-5.2756,-5.276,-5.2882,-5.291,-5.2961,-5.3043,-5.302,-5.3096,-5.3101,-5.3179,-5.3185,-5.3304,-5.3323,-5.3333,-5.3333,-5.3336,-5.3335,-5.3364,-5.3353,-5.333,-5.3328,-5.3327,-5.3325,0,-5.2595,-5.2617,-5.2754,-5.2816,-5.2835,-5.2923,-5.2975,-5.3049,-5.3068,-5.3172,-5.3196,-5.3226,-5.3317,-5.333,-5.3435,-5.3439,-5.3582,-5.3569,-5.3563,-5.3562,-5.3651,-5.3643,-5.3938,-5.3977,-5.3723,-5.3726,-5.3728,0,-5.272,-5.2806,-5.2879,-5.2934,-5.2972,-5.306,-5.3115,-5.3122,-5.3179,-5.3256,-5.332,-5.341,-5.3482,-5.3628,-5.3657,-5.3737,-5.3727,-5.3825,-5.3738,-5.3739,-5.3729,-5.3724,-5.3733,-5.3841,-5.3844,-5.3846,-5.3848,0,-5.2941,-5.2948,-5.3029,-5.3116,-5.3183,-5.3249,-5.3312,-5.3358,-5.3373,-5.3438,-5.3533,-5.359,-5.3699,-5.3788,-5.3869,-5.39,-5.3877,-5.3875,-5.3901,-5.3904,-5.3897,-5.3903,-5.3609,-5.3868,-5.3866,-5.3865,-5.3864,-5.3863,-5.3097,-5.3173,-5.3237,-5.3328,-5.3378,-5.3438,-5.3511,-5.3541,-5.3622,-5.3714,-5.3713,-5.3817,-5.3874,-5.3981,-5.4019,-5.4098,-5.4066,-5.4102,-5.4111,-5.4121,-5.413,-5.3885,-5.4113,-5.4112,-5.4111,-5.4111,-5.4111,0,-5.3317,-5.3358,-5.3442,-5.3534,-5.3606,-5.3581,-5.365,-5.3711,-5.3804,-5.3862,-5.3934,-5.4043,-5.413,-5.4167,-5.4251,-5.4308,-5.4299,-5.433,-5.4326,-5.4334,-5.4153,-5.4124,-5.4335,-5.4335,-5.4335,-5.4335,-5.4335,-5.4335,-5.344,-5.3568,-5.3583,-5.3734,-5.3773,-5.3878,-5.3919,-5.3974,-5.4021,-5.4145,-5.4218,-5.4243,-5.4292,-5.438,-5.4458,-5.4466,-5.4498,-5.4534,-5.4538,-5.4369,-5.4346,-5.4324,-5.4296,-5.4541,-5.4541,-5.4711,-5.4713,-5.4714]}]]